Location: Unspecified
(0.0000°N, 0.0000°E)
Time: 23:05:11
(UTC+02:00)

Delta 168 - Visible Passes

Search period start: 23 April 2014 00:00
Search period end: 03 May 2014 00:00
Orbit: 395 x 2126 km, 25.3° (Epoch: 22 April)

Date Brightness Start Highest point End Pass type
(mag) Time Alt. Az. Time Alt. Az. Time Alt. Az.
23 Apr 6.1 05:20:57 19° SSE 05:20:57 19° SSE 05:23:49 10° ESE visible
23 Apr 4.3 07:11:40 10° SW 07:18:18 47° SSE 07:22:41 10° E visible
23 Apr 5.7 21:00:10 10° WNW 21:10:03 59° SSW 21:19:49 20° SE visible
23 Apr 6.5 23:01:14 10° WSW 23:10:28 31° SSW 23:10:28 31° SSW visible
24 Apr 5.9 05:19:41 23° SE 05:19:41 23° SE 05:23:20 10° ESE visible
24 Apr 4.0 07:10:21 12° SW 07:17:06 63° SSE 07:21:43 10° ENE visible
24 Apr 5.9 20:59:03 10° W 21:08:32 51° SSW 21:18:23 18° SE visible
24 Apr 6.6 23:00:24 10° WSW 23:09:03 28° SSW 23:09:03 28° SSW visible
25 Apr 5.7 05:18:22 29° SE 05:18:22 29° SE 05:22:41 10° ESE visible
25 Apr 3.8 07:09:02 13° WSW 07:15:48 83° SSE 07:20:38 10° ENE visible
25 Apr 6.0 20:58:01 10° W 21:07:04 44° SSW 21:16:54 16° SE visible
25 Apr 6.7 22:59:37 10° WSW 23:07:33 25° SSW 23:07:33 25° SSW visible
26 Apr 5.5 05:17:01 35° SE 05:17:01 35° SE 05:21:52 10° E visible
26 Apr 3.9 07:07:41 15° WSW 07:14:25 78° NNW 07:19:27 10° ENE visible
26 Apr 6.1 20:57:03 10° W 21:05:39 38° SSW 21:15:21 14° SE visible
26 Apr 6.8 22:58:51 10° WSW 23:06:00 23° SSW 23:06:00 23° SSW visible
27 Apr 5.3 05:15:38 43° SE 05:15:38 43° SE 05:20:56 10° E visible
27 Apr 4.2 07:06:18 15° WSW 07:12:57 63° NNW 07:18:10 10° NE visible
27 Apr 6.2 20:56:10 10° WSW 21:04:17 32° SSW 21:13:45 13° SE visible
27 Apr 6.9 22:58:04 10° SW 23:04:24 21° SSW 23:04:24 21° SSW visible
28 Apr 5.2 05:14:12 51° ESE 05:14:12 51° ESE 05:19:53 10° E visible
28 Apr 4.5 07:04:51 16° W 07:11:26 51° NNW 07:16:47 10° NE visible
28 Apr 6.4 20:55:22 10° WSW 21:02:57 28° SSW 21:12:05 11° SE visible
28 Apr 6.9 22:57:15 10° SW 23:02:44 19° SSW 23:02:44 19° SSW visible
29 Apr 5.0 05:12:42 59° ESE 05:12:42 59° ESE 05:18:42 10° ENE visible
29 Apr 4.8 07:03:21 16° W 07:09:51 42° NNW 07:15:20 10° NE visible
29 Apr 6.4 20:54:38 10° WSW 21:01:39 24° S 21:10:22 10° SE visible
29 Apr 6.9 22:56:21 10° SW 23:01:01 18° SSW 23:01:01 18° SSW visible
30 Apr 5.0 05:11:08 65° E 05:11:08 65° E 05:17:25 10° ENE visible
30 Apr 5.2 07:01:47 15° W 07:08:14 35° NNW 07:13:48 10° NNE visible
30 Apr 6.5 20:53:59 10° SW 21:00:23 21° S 21:08:22 10° SE visible
30 Apr 6.9 22:55:21 10° SW 22:59:15 17° SSW 22:59:15 17° SSW visible
01 May 5.0 05:09:30 67° ENE 05:09:30 67° ENE 05:16:02 10° ENE visible
01 May 5.4 07:00:09 14° W 07:06:36 30° NNW 07:12:11 10° NNE visible
01 May 6.6 20:53:23 10° SW 20:59:09 18° S 21:06:11 10° SSE visible
01 May 7.0 22:54:12 10° SSW 22:57:27 16° SSW 22:57:27 16° SSW visible
02 May 5.1 05:07:48 65° NNE 05:07:48 65° NNE 05:14:34 10° ENE visible
02 May 5.7 06:58:26 13° W 07:04:58 26° NNW 07:10:31 10° NNE visible
02 May 6.6 20:52:49 10° SW 20:57:56 16° S 21:04:01 10° SSE visible
02 May 7.0 22:52:55 10° SSW 22:55:38 15° SSW 22:55:38 15° SSW visible
